FW6176 Weather Reports


Display with metric or nautical units.
time (UTC)temp
F
wind
direction
speed
MPH
gust
MPH
rain 1hr
in
rain 24hr
in
rain mn
in
humidity
%
barometer
mb
20260506233004 60 307 0.0 7.0 0.00 0.34 0.08 42 1016.0
20260506231503 60 304 3.0 6.0 0.00 0.34 0.08 42 1016.1
20260506230003 61 295 2.0 10.0 0.00 0.34 0.08 41 1016.0
20260506224503 61 349 2.0 8.0 0.00 0.34 0.08 41 1016.0
20260506223001 61 302 0.0 5.0 0.00 0.34 0.08 43 1016.1
20260506221601 61 266 1.0 7.0 0.00 0.34 0.08 42 1016.1
20260506220100 62 297 4.0 8.0 0.00 0.34 0.08 41 1016.1
20260506214559 62 6 1.0 5.0 0.00 0.36 0.08 40 1016.1
20260506213115 61 335 4.0 8.0 0.00 0.36 0.08 40 1016.2
20260506211558 61 324 3.0 7.0 0.00 0.36 0.08 40 1016.3
20260506210058 61 295 3.0 8.0 0.00 0.36 0.08 42 1016.4
20260506204557 63 302 4.0 6.0 0.00 0.39 0.08 41 1016.4
20260506203055 61 324 2.0 7.0 0.00 0.39 0.08 40 1016.7
20260506201554 62 347 2.0 9.0 0.00 0.39 0.08 39 1017.0
20260506200054 62 314 4.0 10.0 0.00 0.39 0.08 41 1017.1
20260506194614 62 354 3.0 10.0 0.00 0.39 0.08 40 1017.0
20260506193100 61 332 4.0 11.0 0.00 0.39 0.08 39 1017.0
20260506191552 61 308 2.0 9.0 0.00 0.39 0.08 40 1017.0
20260506190050 61 311 5.0 9.0 0.00 0.39 0.08 39 1016.9
20260506184547 61 323 1.0 9.0 0.00 0.40 0.08 44 1016.7
20260506183048 61 302 3.0 7.0 0.00 0.40 0.08 42 1016.9
20260506181545 61 305 5.0 10.0 0.00 0.40 0.08 43 1017.1
20260506180056 61 302 4.0 10.0 0.00 0.40 0.08 43 1017.2
20260506174545 60 304 3.0 6.0 0.00 0.40 0.08 44 1017.1
20260506173040 59 301 2.0 10.0 0.00 0.40 0.08 52 1017.1
20260506171537 58 333 2.0 8.0 0.00 0.40 0.08 57 1017.1
20260506170032 57 291 2.0 8.0 0.00 0.40 0.08 61 1017.1
20260506164529 56 307 3.0 8.0 0.00 0.40 0.08 65 1017.1
20260506163043 55 316 1.0 6.0 0.00 0.40 0.08 72 1017.0
20260506161520 54 293 3.0 6.0 0.00 0.40 0.08 73 1016.9
20260506160020 53 290 2.0 6.0 0.00 0.40 0.08 79 1016.7
20260506154513 53 315 2.0 5.0 0.00 0.40 0.08 83 1016.8
20260506153010 52 301 1.0 3.0 0.00 0.40 0.08 86 1016.2
20260506151507 51 316 1.0 4.0 0.00 0.40 0.08 89 1016.2
20260506150005 51 311 0.0 2.0 0.00 0.40 0.08 89 1016.0
20260506144600 50 299 0.0 2.0 0.00 0.40 0.08 89 1015.8
20260506143105 50 266 0.0 5.0 0.00 0.40 0.08 89 1015.9
20260506141552 49 294 1.0 4.0 0.00 0.40 0.08 89 1015.9
20260506140056 49 294 2.0 10.0 0.00 0.40 0.08 89 1016.2
20260506134550 49 308 1.0 3.0 0.00 0.42 0.08 89 1015.9
20260506133045 49 276 0.0 3.0 0.00 0.42 0.08 89 1015.8
20260506131542 49 303 0.0 5.0 0.00 0.42 0.08 89 1015.8
20260506130040 48 301 0.0 1.0 0.00 0.42 0.08 89 1015.7
20260506124539 48 241 0.0 0.0 0.00 0.50 0.08 89 1015.5
20260506123038 48 288 0.0 1.0 0.00 0.50 0.08 89 1015.6
20260506121540 48 248 0.0 1.0 0.00 0.50 0.08 89 1015.3
20260506120029 48 18 0.0 1.0 0.00 0.50 0.08 89 1015.1
20260506114532 48 257 0.0 1.0 0.00 0.54 0.08 89 1015.6
20260506113022 48 267 0.0 1.0 0.00 0.54 0.08 89 1015.2
20260506111518 48 289 0.0 1.0 0.01 0.54 0.08 89 1014.7
20260506110017 47 204 0.0 0.0 0.01 0.54 0.08 89 1014.1
20260506104514 47 203 0.0 0.0 0.01 0.54 0.08 89 1013.5
20260506103014 47 203 0.0 0.0 0.02 0.54 0.08 89 1013.1
20260506101514 47 237 0.0 1.0 0.01 0.53 0.07 89 1013.4
20260506100012 47 297 0.0 2.0 0.01 0.53 0.07 89 1013.4
20260506094512 47 332 0.0 1.0 0.02 0.53 0.07 89 1013.3
20260506093055 47 263 0.0 0.0 0.01 0.52 0.06 89 1013.4
20260506091552 47 263 0.0 1.0 0.01 0.52 0.06 89 1013.3
20260506090051 47 290 0.0 0.0 0.01 0.52 0.06 89 1013.7
20260506084551 47 288 0.0 0.0 0.00 0.51 0.05 89 1013.1
20260506083049 47 294 0.0 1.0 0.00 0.51 0.05 89 1013.2
20260506081550 47 256 0.0 1.0 0.01 0.51 0.05 89 1013.3
20260506073149 47 314 0.0 2.0 0.01 0.51 0.05 89 1012.3
20260506071546 47 304 0.0 2.0 0.00 0.50 0.04 89 1013.1
20260506061537 47 272 0.0 0.0 0.04 0.50 0.04 89 1012.5
20260506044538 47 304 0.0 1.0 0.03 0.46 0.46 89 1012.4
20260506043027 47 303 0.0 1.0 0.02 0.45 0.45 88 1012.5
20260506041527 47 305 0.0 0.0 0.01 0.44 0.44 88 1012.4
20260506040126 47 319 0.0 1.0 0.00 0.43 0.43 88 1012.7
20260506034525 47 312 0.0 2.0 0.00 0.43 0.43 88 1012.8
20260506033021 47 295 0.0 1.0 0.00 0.43 0.43 88 1012.5
20260506031537 47 314 0.0 4.0 0.00 0.43 0.43 88 1012.0
20260506030020 47 315 0.0 1.0 0.01 0.43 0.43 88 1011.5
20260506024521 46 324 0.0 1.0 0.03 0.43 0.43 88 1011.7
20260506023019 46 319 0.0 0.0 0.05 0.43 0.43 88 1011.7
20260506021519 46 321 0.0 1.0 0.06 0.43 0.43 87 1011.9
20260506020018 46 301 0.0 2.0 0.07 0.42 0.42 87 1011.5
20260506014517 46 269 0.0 3.0 0.09 0.40 0.40 87 1012.2
20260506013014 47 304 0.0 2.0 0.07 0.38 0.38 87 1011.5
20260506011512 46 309 0.0 1.0 0.07 0.37 0.37 86 1011.1
20260506010013 46 340 0.0 3.0 0.07 0.35 0.35 85 1010.9
20260506004521 47 313 0.0 3.0 0.04 0.31 0.31 85 1011.3
20260506003009 47 301 1.0 4.0 0.09 0.31 0.31 85 1010.5
20260506001505 47 307 0.0 4.0 0.10 0.30 0.30 85 1010.6
20260506000004 47 331 1.0 7.0 0.08 0.28 0.28 85 1010.4
20260505234503 48 297 4.0 7.0 0.06 0.26 0.26 83 1010.1